Regional Weather Roundup
Issued by NWS Raleigh/Durham, NC

Home | Current Version | Previous Version | Text Only | Print | Product List | Glossary On
Versions: 1 2 3 4 5 6 7 8 9 10 11 12 13 14 15 16 17 18 19 20 21 22 23 24 25 26 27
000
ASUS42 KRAH 040010
RWRRAH
NORTH CAROLINA WEATHER ROUNDUP
NATIONAL WEATHER SERVICE RALEIGH NC
700 PM EST SAT DEC 03 2016

NOTE: "FAIR" INDICATES FEW OR NO CLOUDS BELOW 12,000 FEET WITH NO
SIGNIFICANT WEATHER AND/OR OBSTRUCTIONS TO VISIBILITY.

NCZ001-053-055-056-065-067-040100-
WESTERN NORTH CAROLINA

CITY           SKY/WX    TMP DP  RH WIND       PRES   REMARKS
ASHEVILLE      CLOUDY    46  28  49 N6        30.22R
JEFFERSON      MOCLDY    36  27  68 CALM      30.19S
MORGANTON      CLOUDY    47  34  59 E3        30.27S
HICKORY        CLOUDY    47  31  53 E3        30.23R
RUTHERFORDTON  MOCLDY    48  33  55 CALM      30.24R
MOUNT AIRY     CLOUDY    44  30  57 N3        30.25S
BOONE          CLOUDY    38  24  57 W5        30.20S WCI  35
$$

NCZ021-022-025-041-071-084-088-040100-
CENTRAL NORTH CAROLINA

CITY           SKY/WX    TMP DP  RH WIND       PRES   REMARKS
CHARLOTTE      CLOUDY    50  31  48 CALM      30.25R
GREENSBORO     CLOUDY    46  29  51 CALM      30.23S
WINSTON-SALEM  CLOUDY    45  28  51 CALM      30.25R
RALEIGH-DURHAM CLOUDY    45  29  53 CALM      30.25R
FORT BRAGG     CLOUDY    46  39  77 CALM      30.24R
FAYETTEVILLE   CLOUDY    49  36  61 CALM      30.25R
BURLINGTON     CLOUDY    46  28  49 CALM      30.24S
LAURINBURG     CLOUDY    47  38  71 CALM      30.26R
$$

NCZ011-015-027-028-043-044-047-080-103-040100-
NORTHEASTERN NORTH CAROLINA

CITY           SKY/WX    TMP DP  RH WIND       PRES   REMARKS
ROCKY MT-WILSO CLOUDY    42  36  79 CALM      30.24S
GREENVILLE     CLOUDY    45  36  70 CALM      30.24F
WASHINGTON     CLOUDY    46  32  58 CALM      30.24S
ELIZABETH CITY CLOUDY    45  32  60 NW8       30.23S
MANTEO         MOCLDY    48  34  58 N6        30.21F
CAPE HATTERAS  MOCLDY    50  34  54 N8        30.21R
$$

NCZ078-087-090-091-093-098-101-040100-
SOUTHEASTERN NORTH CAROLINA

CITY           SKY/WX    TMP DP  RH WIND       PRES   REMARKS
LUMBERTON      CLOUDY    46  38  73 CALM      30.25R
GOLDSBORO      CLOUDY    47  34  60 CALM      30.22S
KINSTON        CLOUDY    43  37  81 CALM      30.25R
KENANSVILLE    MOCLDY    43  37  81 CALM      30.25R
NEW BERN       CLOUDY    45  36  70 S3        30.25R
CHERRY POINT   CLOUDY    45  36  70 SW3       30.25R
BEAUFORT       PTCLDY    47  36  65 N5        30.24R
JACKSONVILLE   MOCLDY    46  37  71 CALM      30.24S
WILMINGTON     CLOUDY    47  36  65 NW3       30.25S
$$





USA.gov is the U.S. government's official web portal to all federal, state and local government web resources and services.